TimeCDT,TemperatureF,Dew PointF,Humidity,Sea Level PressureIn,VisibilityMPH,Wind Direction,Wind SpeedMPH,Gust SpeedMPH,PrecipitationIn,Events,Conditions,WindDirDegrees,DateUTC
12:53 AM,68.0,43.0,40,29.79,-9999.0,NNE,9.2,-,N/A,,Unknown,30,2014-04-01 05:53:00
1:53 AM,66.0,46.0,48,29.78,-9999.0,North,10.4,-,N/A,,Unknown,10,2014-04-01 06:53:00
2:53 AM,64.9,48.0,54,29.78,-9999.0,North,8.1,-,N/A,,Unknown,360,2014-04-01 07:53:00
3:53 AM,64.0,48.0,56,29.77,-9999.0,North,6.9,-,N/A,,Unknown,360,2014-04-01 08:53:00
4:53 AM,63.0,48.9,60,29.78,-9999.0,North,9.2,-,N/A,,Unknown,10,2014-04-01 09:53:00
5:53 AM,61.0,48.0,62,29.79,-9999.0,North,6.9,-,N/A,,Unknown,10,2014-04-01 10:53:00
6:53 AM,57.9,50.0,75,29.80,-9999.0,NNE,8.1,-,N/A,,Unknown,20,2014-04-01 11:53:00
7:53 AM,57.9,53.1,84,29.82,-9999.0,NNE,8.1,-,N/A,,Unknown,20,2014-04-01 12:53:00
8:53 AM,63.0,57.9,84,29.85,-9999.0,NNE,5.8,-,N/A,,Unknown,20,2014-04-01 13:53:00
9:53 AM,64.9,57.9,78,29.87,-9999.0,NE,4.6,-,N/A,,Unknown,40,2014-04-01 14:53:00
10:53 AM,72.0,57.0,59,29.85,-9999.0,ENE,5.8,-,N/A,,Unknown,60,2014-04-01 15:53:00
11:53 AM,75.9,55.0,48,29.84,-9999.0,Calm,Calm,-,N/A,,Unknown,0,2014-04-01 16:53:00
12:53 PM,80.1,53.1,39,29.83,-9999.0,SE,8.1,-,N/A,,Unknown,140,2014-04-01 17:53:00
1:53 PM,82.9,48.9,31,29.78,-9999.0,SSE,8.1,-,N/A,,Unknown,160,2014-04-01 18:53:00
2:53 PM,86.0,45.0,24,29.74,-9999.0,SSW,8.1,-,N/A,,Unknown,200,2014-04-01 19:53:00
3:53 PM,86.0,48.0,27,29.72,-9999.0,ESE,10.4,-,N/A,,Unknown,120,2014-04-01 20:53:00
4:53 PM,89.1,53.1,29,29.69,-9999.0,ESE,13.8,20.7,N/A,,Unknown,110,2014-04-01 21:53:00
5:53 PM,87.1,55.0,33,29.69,-9999.0,SE,15.0,24.2,N/A,,Unknown,140,2014-04-01 22:53:00
6:53 PM,84.9,55.9,37,29.68,-9999.0,ESE,17.3,-,N/A,,Unknown,120,2014-04-01 23:53:00
7:53 PM,81.0,59.0,47,29.70,-9999.0,ESE,15.0,-,N/A,,Unknown,120,2014-04-02 00:53:00
8:53 PM,78.1,61.0,56,29.71,-9999.0,ESE,12.7,-,N/A,,Unknown,120,2014-04-02 01:53:00
9:53 PM,75.9,61.0,60,29.73,-9999.0,East,6.9,-,N/A,,Unknown,100,2014-04-02 02:53:00
10:53 PM,75.9,59.0,56,29.72,-9999.0,ESE,10.4,-,N/A,,Unknown,110,2014-04-02 03:53:00
11:53 PM,73.9,60.1,62,29.70,-9999.0,East,5.8,-,N/A,,Unknown,80,2014-04-02 04:53:00